Location: Alma
(38.7220°N, 88.9090°W)
Time: 16:08:57
(UTC-06:00)

Vanguard 2 Rocket - Pass Details

Date: 20 November 2019
Orbit: 554 x 3326 km, 32.9° (Epoch: 08 December)

Event Time Altitude Azimuth Distance (km) Brightness Sun altitude
Rises 06:21:27 0° 266° (W) 3,814 - -4.7°
Exits shadow 06:21:47 - 265° (W) 3,728 9.5 -4.7°
Reaches altitude 10° 06:24:17 10° 252° (WSW) 3,181 9.2 -4.2°
Maximum altitude 06:30:36 24° 202° (SSW) 2,923 9.5 -3.1°
Drops below altitude 10° 06:39:56 10° 155° (SSE) 4,864 11.5 -1.4°
Sets 06:45:44 0° 144° (SE) 6,372 12.4 -0.4°
